Regional Weather Roundup
Issued by NWS Kansas City/Pleasant Hill, MO

Home | Current Version | Previous Version | Text Only | Print | Product List | Glossary On
Versions: 1 2 3 4 5 6 7 8 9 10 11 12 13 14 15 16 17 18 19 20 21 22 23 24 25 26 27 28
000
ASUS43 KEAX 180310
RWREAX

WEATHER ROUNDUP FOR EASTERN KANSAS AND NORTHWEST MISSOURI
NATIONAL WEATHER SERVICE KANSAS CITY/PLEASANT HILL MO
1000 PM CDT TUE OCT 17 2017

KSZ040-057-103>105-MOZ028-029-037-043-180400-
...KANSAS CITY METROPOLITAN AREA...

CITY           SKY/WX    TMP DP  RH WIND       PRES   REMARKS
K.C. INTL      CLEAR     54  47  77 S10       30.10R
K.C. DOWNTOWN  CLEAR     62  48  60 S9        30.10R
LEES SUMMIT    CLEAR     59  47  64 S12       30.12R
OLATHE - IXD   CLEAR     56  47  71 S9        30.11R
OLATHE - OJC   CLEAR     56  46  69 S8        30.11R
LAWRENCE       CLEAR     59  48  67 S9        30.09S

$$

MOZ001>008-011>017-020>025-030>033-038>040-044>046-053-054-180400-
...NORTHERN AND CENTRAL MISSOURI...

CITY           SKY/WX    TMP DP  RH WIND       PRES   REMARKS
ST. JOSEPH     CLEAR     59  49  69 S8        30.07R
MOSBY          CLEAR     54  45  71 SE3       30.11R
WARRENSBURG    CLEAR     54  45  71 S7        30.12S
WHITEMAN AFB   CLEAR     53  46  77 S7        30.09R
CLINTON        CLEAR     55  46  71 S7        30.14S HAZE
SEDALIA        CLEAR     56  46  69 S12       30.14S
WARSAW         NOT AVBL
CHILLICOTHE      N/A     55  47  74 S3        30.12R
KIRKSVILLE     CLEAR     50  46  86 S7        30.14R

$$

MOZ041-047>049-056>058-063>065-088>090-097-180400-
...EASTERN AND SOUTHERN MISSOURI...

CITY           SKY/WX    TMP DP  RH WIND       PRES   REMARKS
ST. LOUIS INTL CLEAR     59  40  49 S9        30.20R
SPIRIT OF STL  CLEAR     48  45  89 CALM      30.19R
COLUMBIA       CLEAR     54  43  66 S9        30.15F
JEFFERSON CITY CLEAR     54  44  69 SE5       30.16R
ROLLA          CLEAR     54  39  57 S9        30.19R
SPRINGFIELD    CLEAR     55  41  59 S10       30.17R
BRANSON        CLEAR     54  39  58 CALM      30.20S
JOPLIN         CLEAR     53  46  77 S9        30.16S
WEST PLAINS    CLEAR     53  39  59 S5        30.23R

$$

IAZ060-094-KSZ022-034>040-054-083-096-NEZ052-066-093-180400-
...KANSAS...SOUTHEAST NEBRASKA AND IOWA...

CITY           SKY/WX    TMP DP  RH WIND       PRES   REMARKS
TOPEKA         CLEAR     60  49  66 S8        30.08R
MANHATTAN      CLEAR     60  47  61 S9        30.05R
EMPORIA        CLEAR     53  45  74 S9        30.10R
CHANUTE        CLEAR     53  46  77 SE8       30.13R
WICHITA        CLEAR     57  47  69 S13       30.08S
OMAHA          CLEAR     57  46  66 S7        30.00S
LINCOLN        PTCLDY    56  46  69 S5        30.01S
FALLS CITY     CLEAR     58  47  66 S9        30.04R
LAMONI         CLEAR     57  46  66 S10       30.07S
DES MOINES     CLEAR     57  46  66 S9        30.05R

$$





USA.gov is the U.S. government's official web portal to all federal, state and local government web resources and services.